Погода в Порту-Велью

Бразилия     8°45′30″S   63°54′12″W
темп.,
°C
ветер,
м/с
пор.,
м/с
влажн.,
%
обл.,
%
осадки,
мм/ч
давл.,
гПа
погр.,
м
27 февраля, сб
сб2723:00+25ссв128799 0.0 101067
02:00+23с1195100 0.6 100825
05:00+22ссз1198100 0.5 100824
08:00+24сз1496100 2.3 1010324
11:00+26зюз1286100 0.1 1011378
14:00+26ююз1289100 1.9 1007224
17:00+28зсз137489 1.2 1005506
20:00+25ссв129083 2.1 100735
28 февраля, вс
вс2823:00+24св1192100 0.5 100935
02:00+23сз1498100 1.8 1008140
05:00+23зсз1499100 2.6 1007202
08:00+23зсз1599100 5.5 1010255
11:00+25сз2488100 1.5 1010381
14:00+29сз237381 2.6 10061024
17:00+28ююз029075 5.4 1003167
20:00+24с119587 9.8 100524
1 марта, пн
пн123:00+23ссв0198100 2.2 100729
02:00+23зсз1199100 4.9 100643
05:00+23сз1299100 1.8 1006128
08:00+23с14100100 6.0 1008226
11:00+23с1698100 2.8 1009466
14:00+25ссз3793100 4.1 1007741
17:00+25ссз278099 0.1 1005715
20:00+23с1693100 0.2 1007300
2 марта, вт
вт223:00+22с1695100 0.0 1009314
02:00+22с1596100 0.1 1007289
05:00+21ссз1199100 0.1 100749
08:00+23ссв1295100 0.1 1010230
11:00+25с1391100 1.1 1011439
14:00+27с139294 8.3 1008568
17:00+26с269599 7.9 1006687
20:00+22с179995 9.9 1009258
3 марта, ср
ср323:00+22ссв1699100 0.6 1012278
02:00+22ссз1210099 1.2 101097
05:00+22с11100100 0.3 101085
08:00+23с0198100 0.7 1013179
11:00+25с2487100 1.0 1014604
14:00+25с249298 3.8 1011574
17:00+25с158999 1.3 1010543
20:00+22св129998 2.6 101278